Weather in Pon'goma

Russia / Republic of Karelia     65°20′42″N   34°24′32″E
temp.,
°C
wind,
m/s
gust,
m/s
humid.,
%
clouds,
%
prec.,
mm/h
press.,
hPa
HPBL,
m
5 august, thu
thu500:00+9wnw111589100 1.8 1008927
03:00+10wnw81284100 2.7 1010701
06:00+10w61087100 0.0 1012381
09:00+12w6876100 0.0 1014361
12:00+14w4566100 0.0 1016382
15:00+16wsw5654100 0.0 1016790
18:00+16sw4463100 0.0 1017216
21:00+14ssw4470100 0.2 101822
6 august, fri
fri600:00+12ssw447914 0.0 101939
03:00+12wsw447590 0.0 101951
06:00+12wsw337370 0.0 102029
09:00+15ssw336571 0.0 1020185
12:00+16sse325882 0.0 1021754
15:00+15se546662 0.0 1020370
18:00+14sse3568100 0.0 102166
21:00+13sse346964 0.0 102134
7 august, sat
sat700:00+13s3366100 0.0 102234
03:00+13ssw2365100 0.0 102220
06:00+13s226676 0.0 102321
09:00+14se446921 0.0 1023172
12:00+15se44652 0.0 1023351
15:00+15ese45630 0.0 1023310
18:00+14e45690 0.0 1022159
21:00+13ene610790 0.0 1022120
8 august, sun
sun800:00+12e59790 0.0 1022100
03:00+12e56830 0.0 102288
06:00+12e478314 0.0 1022135
09:00+13e5875100 0.0 1022203
12:00+14e6971100 0.0 1021315
15:00+14e7107398 0.0 1021245
18:00+13e8137397 0.0 1020238
21:00+13e61376100 0.0 1020176
9 august, mon
mon900:00+13e61178100 0.0 1020123
03:00+12e5782100 0.0 102083
06:00+12e4884100 0.0 1020137
09:00+13e5882100 0.0 1020199
12:00+13e4680100 0.0 1021234
15:00+13ene568191 0.0 1021184
18:00+13ene467948 0.0 1020153
21:00+12e45825 0.0 101956